Torna al catalogo

STARLINK-37888

AttivoComunicazioniVLEO
NORAD 69535·PAYLOAD·🇺🇸 United States

Lanciato Jun 12, 2026 da Cape Canaveral Space Force Station

Loading…

Prossimi Passaggi (prossime 24 ore)

TLE

AggiornatoSource: CelesTrak SupGP

Epoca: Sep 15, 2026, 04:11 UTC

1 69535C 26133AD  26258.17479167 -.00046369  00000+0 -13700-2 0  2588
2 69535  53.1571 254.8256 0001368  83.1916 257.7132 15.34414191    11

Traccia STARLINK-37888 in tempo reale con AllMySat

Download on the App Store